Jackson Hawkins Field, MS

3:43 AM CST on November 13, 2019 (GMT -0600)
Hawkins

Weather History for KHKS - October, 2019

Change the Weather History Date:

Tuesday, October 22, 2019

  Actual Average (KJAN) Record (KJAN)
Temperature  
Mean Temperature 59 °F -  
Max Temperature 70 °F 76 °F 92 °F (1941)
Min Temperature 47 °F 50 °F 31 °F (1987)
Degree Days  
Heating Degree Days 6    
Month to date heating degree days 33  
Growing Degree Days 10 (Base 50)    
Moisture  
Dew Point 49 °F    
Average Humidity 61    
Maximum Humidity 93    
Minimum Humidity 28    
Precipitation  
Precipitation 0.00 in - - ()
Month to date precipitation 5.67  
Year to date precipitation 46.68  
Sea Level Pressure  
Sea Level Pressure 30.07 in    
Wind  
Wind Speed 4 mph (NW)    
Max Wind Speed 22 mph    
Max Gust Speed 28 mph    
Visibility 7 miles    
Events Fog    
Averages and records for this station are not official NWS values.
T = Trace of Precipitation, MM = Missing Value Source: NWS Daily Summary

Daily Weather History Graph

Daily Weather History Graph

Search for Another Location

Airport or City:

Astronomy

Oct. 22, 2019 Rise Set
Actual Time 7:09 AM CDT 6:20 PM CDT
Civil Twilight 6:44 AM CDT 6:45 PM CDT
Nautical Twilight 6:16 AM CDT 7:14 PM CDT
Astronomical Twilight 5:47 AM CDT 7:42 PM CDT
Moon 12:47 AM CDT (10/22) 3:03 PM CDT (10/22)
Length of Visible Light 12h 00m
Length of Day
11h 10m
Last Quarter, 37% of the Moon is Illuminated
Oct 22
Last Quarter
Oct 27
New
Nov 4
First Quarter
Nov 12
Full
Nov 19
Last Quarter

Hourly Weather History & Observations

Time (CDT) Temp. Dew Point Humidity Pressure Visibility Wind Dir Wind Speed Gust Speed Precip Events Conditions
12:53 AM 62.1 °F 60.1 °F 93% 29.97 in 7.0 mi WNW 9.2 mph - N/A   Overcast
1:51 AM 60.8 °F 59.0 °F 94% 30.01 in 10.0 mi WNW 6.9 mph - N/A   Mostly Cloudy
1:53 AM 61.0 °F 57.9 °F 90% 30.00 in 10.0 mi WNW 6.9 mph - N/A   Mostly Cloudy
2:10 AM 60.1 °F 57.9 °F 93% 30.02 in 10.0 mi WNW 4.6 mph - N/A   Partly Cloudy
2:53 AM 59.0 °F 55.9 °F 90% 30.01 in 10.0 mi Calm Calm - N/A   Clear
3:08 AM 57.9 °F 55.9 °F 93% 30.03 in 1.2 mi Calm Calm - N/A   Clear
3:16 AM 57.9 °F 55.9 °F 93% 30.03 in 0.5 mi Calm Calm - N/A Fog Fog
3:23 AM 57.9 °F 55.0 °F 90% 30.03 in 3.0 mi Calm Calm - N/A   Clear
3:35 AM 57.0 °F 55.0 °F 93% 30.03 in 0.8 mi Calm Calm - N/A   Clear
3:46 AM 57.0 °F 55.0 °F 93% 30.03 in 2.0 mi Calm Calm - N/A   Clear
3:53 AM 57.0 °F 55.0 °F 93% 30.01 in 9.0 mi Calm Calm - N/A   Clear
4:02 AM 55.9 °F 54.0 °F 93% 30.03 in 0.8 mi Calm Calm - N/A   Clear
4:12 AM 55.9 °F 53.1 °F 90% 30.03 in 0.2 mi Calm Calm - N/A Fog Fog
4:53 AM 55.0 °F 52.0 °F 89% 30.02 in 0.5 mi Calm Calm - N/A Fog Fog
5:03 AM 55.0 °F 53.1 °F 93% 30.04 in 1.2 mi Calm Calm - N/A   Partly Cloudy
5:08 AM 55.0 °F 53.1 °F 93% 30.04 in 3.0 mi Calm Calm - N/A   Partly Cloudy
5:53 AM 54.0 °F 51.1 °F 90% 30.04 in 10.0 mi Calm Calm - N/A   Clear
6:53 AM 52.0 °F 48.9 °F 89% 30.06 in 10.0 mi Calm Calm - N/A   Clear
8:53 AM 57.0 °F 48.9 °F 74% 30.11 in 10.0 mi WNW 4.6 mph - N/A   Clear
9:53 AM 61.0 °F 48.9 °F 64% 30.13 in 10.0 mi WNW 5.8 mph - N/A   Clear
10:53 AM 64.9 °F 42.1 °F 43% 30.14 in 10.0 mi NW 12.7 mph 17.3 mph N/A   Clear
11:53 AM 66.9 °F 39.9 °F 37% 30.15 in 10.0 mi NW 11.5 mph 18.4 mph N/A   Clear
12:53 PM 69.1 °F 39.0 °F 33% 30.14 in 10.0 mi NW 9.2 mph - N/A   Clear
1:53 PM 69.1 °F 36.0 °F 30% 30.12 in 10.0 mi NW 12.7 mph 20.7 mph N/A   Clear
2:53 PM 69.1 °F 36.0 °F 30% 30.11 in 10.0 mi WNW 9.2 mph 19.6 mph N/A   Clear
3:53 PM 69.1 °F 35.1 °F 29% 30.11 in 10.0 mi NW 12.7 mph 19.6 mph N/A   Clear
4:53 PM 68.0 °F 37.0 °F 32% 30.10 in 10.0 mi NW 5.8 mph - N/A   Clear
5:53 PM 64.0 °F 37.9 °F 38% 30.11 in 10.0 mi WNW 5.8 mph - N/A   Clear
6:53 PM 57.9 °F 44.1 °F 60% 30.12 in 10.0 mi Calm Calm - N/A   Clear
7:53 PM 54.0 °F 46.0 °F 75% 30.13 in 10.0 mi Calm Calm - N/A   Clear
8:53 PM 52.0 °F 46.0 °F 80% 30.14 in 10.0 mi Calm Calm - N/A   Clear
9:53 PM 50.0 °F 46.0 °F 86% 30.14 in 10.0 mi Calm Calm - N/A   Clear
11:53 PM 48.9 °F 45.0 °F 86% 30.15 in 10.0 mi Calm Calm - N/A   Clear